When you browse on this site, cookies collect data to enhance your experience and personalize the content and advertising you see.
Visit our Privacy Policy to learn more. By continuing to use the site, you agree to this use of cookies and data.
  • In Slovakia
  • List of Countries
  • For 7 days
  • Water Temperature
  • Satellite Maps
  • Weather Map
  • Weather Widgets
  • user-avatar
    Login

    Hourly Weather Idzhewan

    Today, 23 March, Saturday

    Time Temperature Precipitation Wind Pressure Humidity
    00:00 +3°C° 0 mm 0 mps 695 mmHg 81%
    01:00 +3°C° 0 mm 0 mps 694 mmHg 82%
    02:00 +2°C° 0 mm 0 mps 694 mmHg 83%
    03:00 +2°C° 0 mm 0 mps 694 mmHg 83%
    04:00 +2°C° 0 mm 0 mps 694 mmHg 83%
    05:00 +2°C° 0 mm 0 mps 694 mmHg 83%
    06:00 +2°C° 0 mm 0 mps 694 mmHg 83%
    07:00 +3°C° 0 mm 0 mps 693 mmHg 76%
    08:00 +5°C° 0 mm 1 mps 693 mmHg 70%
    09:00 +7°C° 0 mm 1 mps 693 mmHg 63%
    10:00 +8°C° 0 mm 1 mps 692 mmHg 59%
    11:00 +9°C° 0 mm 1 mps 692 mmHg 55%
    12:00 +9°C° 0 mm 2 mps 691 mmHg 51%
    13:00 +9°C° 0 mm 2 mps 691 mmHg 50%
    14:00 +9°C° 0 mm 2 mps 690 mmHg 49%
    15:00 +10°C° 0 mm 2 mps 689 mmHg 48%
    16:00 +9°C° 0 mm 2 mps 689 mmHg 52%
    17:00 +9°C° 0 mm 1 mps 689 mmHg 57%
    18:00 +8°C° 0 mm 1 mps 689 mmHg 62%
    19:00 +7°C° 0 mm 1 mps 689 mmHg 65%
    20:00 +6°C° 0 mm 0 mps 689 mmHg 68%
    21:00 +5°C° 0 mm 0 mps 689 mmHg 71%
    22:00 +5°C° 0 mm 0 mps 689 mmHg 72%
    23:00 +4°C° 0 mm 0 mps 689 mmHg 73%

    Tomorrow, 24 March, Sunday

    Time Temperature Precipitation Wind Pressure Humidity
    00:00 +4°C° 0 mm 0 mps 689 mmHg 74%
    01:00 +4°C° 0 mm 0 mps 689 mmHg 73%
    02:00 +4°C° 0 mm 0 mps 688 mmHg 73%
    03:00 +4°C° 0 mm 0 mps 688 mmHg 73%
    04:00 +4°C° 0.2 mm 0 mps 688 mmHg 76%
    05:00 +4°C° 0.2 mm 0 mps 688 mmHg 80%
    06:00 +4°C° 0.2 mm 0 mps 688 mmHg 83%
    07:00 +5°C° 0.1 mm 1 mps 687 mmHg 80%
    08:00 +6°C° 0.1 mm 1 mps 687 mmHg 77%
    09:00 +6°C° 0.1 mm 2 mps 687 mmHg 73%
    10:00 +6°C° 0.2 mm 2 mps 687 mmHg 72%
    11:00 +7°C° 0.2 mm 2 mps 687 mmHg 71%
    12:00 +8°C° 0.2 mm 3 mps 686 mmHg 70%
    13:00 +7°C° 0.3 mm 3 mps 686 mmHg 71%
    14:00 +7°C° 0.3 mm 3 mps 685 mmHg 73%
    15:00 +7°C° 0.3 mm 3 mps 685 mmHg 74%
    16:00 +5°C° 0.8 mm 3 mps 685 mmHg 78%
    17:00 +4°C° 0.8 mm 3 mps 686 mmHg 82%
    18:00 +4°C° 0.8 mm 3 mps 686 mmHg 86%
    19:00 +4°C° 0.5 mm 2 mps 687 mmHg 87%
    20:00 +4°C° 0.5 mm 2 mps 687 mmHg 88%
    21:00 +3°C° 0.5 mm 2 mps 688 mmHg 90%
    22:00 +3°C° 0.2 mm 2 mps 688 mmHg 89%
    23:00 +4°C° 0.2 mm 1 mps 688 mmHg 89%

    Day after tomorrow, 25 March, Monday

    Time Temperature Precipitation Wind Pressure Humidity
    00:00 +4°C° 0.2 mm 1 mps 688 mmHg 88%
    01:00 +3°C° 0.1 mm 1 mps 688 mmHg 88%
    02:00 +3°C° 0.1 mm 1 mps 688 mmHg 88%
    03:00 +3°C° 0.1 mm 1 mps 688 mmHg 88%
    04:00 +3°C° 0 mm 1 mps 688 mmHg 87%
    05:00 +2°C° 0 mm 1 mps 688 mmHg 87%
    06:00 +2°C° 0 mm 1 mps 688 mmHg 87%
    07:00 +3°C° 0 mm 1 mps 688 mmHg 82%
    08:00 +5°C° 0 mm 1 mps 689 mmHg 78%
    09:00 +6°C° 0 mm 1 mps 689 mmHg 74%
    10:00 +7°C° 0 mm 1 mps 688 mmHg 72%
    11:00 +7°C° 0 mm 2 mps 688 mmHg 70%
    12:00 +8°C° 0 mm 2 mps 687 mmHg 68%
    13:00 +8°C° 0 mm 2 mps 687 mmHg 67%
    14:00 +9°C° 0 mm 2 mps 687 mmHg 65%
    15:00 +9°C° 0 mm 2 mps 686 mmHg 64%
    16:00 +8°C° 0 mm 2 mps 687 mmHg 67%
    17:00 +8°C° 0 mm 2 mps 687 mmHg 71%
    18:00 +7°C° 0 mm 2 mps 687 mmHg 74%
    19:00 +8°C° 0 mm 1 mps 687 mmHg 77%
    20:00 +7°C° 0 mm 1 mps 688 mmHg 80%
    21:00 +7°C° 0 mm 1 mps 689 mmHg 83%
    22:00 +6°C° 0.2 mm 1 mps 689 mmHg 86%
    23:00 +6°C° 0.2 mm 1 mps 689 mmHg 88%

    26 March, Tuesday

    Time Temperature Precipitation Wind Pressure Humidity
    00:00 +6°C° 0.2 mm 1 mps 688 mmHg 91%
    01:00 +5°C° 0.1 mm 1 mps 689 mmHg 92%
    02:00 +5°C° 0.1 mm 1 mps 689 mmHg 92%
    03:00 +5°C° 0.1 mm 1 mps 689 mmHg 93%
    04:00 +5°C° 0.2 mm 1 mps 689 mmHg 93%
    05:00 +5°C° 0.2 mm 1 mps 689 mmHg 93%
    06:00 +5°C° 0.2 mm 1 mps 689 mmHg 93%
    07:00 +5°C° 0.1 mm 1 mps 689 mmHg 90%
    08:00 +6°C° 0.1 mm 1 mps 689 mmHg 87%
    09:00 +5°C° 0.1 mm 2 mps 690 mmHg 84%
    10:00 +6°C° 0.1 mm 2 mps 689 mmHg 82%
    11:00 +6°C° 0.1 mm 2 mps 689 mmHg 80%
    12:00 +7°C° 0.1 mm 2 mps 689 mmHg 79%
    13:00 +7°C° 0.1 mm 2 mps 688 mmHg 77%
    14:00 +8°C° 0.1 mm 2 mps 688 mmHg 75%
    15:00 +8°C° 0.1 mm 2 mps 688 mmHg 73%
    16:00 +8°C° 0.1 mm 2 mps 688 mmHg 76%
    17:00 +7°C° 0.1 mm 2 mps 688 mmHg 78%
    18:00 +7°C° 0.1 mm 2 mps 688 mmHg 80%
    19:00 +7°C° 0 mm 1 mps 688 mmHg 82%
    20:00 +7°C° 0 mm 1 mps 689 mmHg 83%
    21:00 +5°C° 0 mm 0 mps 689 mmHg 85%
    22:00 +5°C° 0 mm 0 mps 689 mmHg 86%
    23:00 +5°C° 0 mm 0 mps 689 mmHg 86%

    27 March, Wednesday

    Time Temperature Precipitation Wind Pressure Humidity
    00:00 +4°C° 0 mm 0 mps 689 mmHg 87%
    01:00 +4°C° 0 mm 0 mps 690 mmHg 87%
    02:00 +4°C° 0 mm 0 mps 690 mmHg 87%
    03:00 +4°C° 0 mm 0 mps 690 mmHg 88%
    04:00 +4°C° 0 mm 0 mps 690 mmHg 88%
    05:00 +3°C° 0 mm 0 mps 690 mmHg 88%
    06:00 +3°C° 0 mm 0 mps 690 mmHg 88%
    07:00 +6°C° 0 mm 1 mps 690 mmHg 82%
    08:00 +7°C° 0 mm 1 mps 690 mmHg 75%
    09:00 +9°C° 0 mm 1 mps 690 mmHg 69%
    10:00 +10°C° 0 mm 1 mps 690 mmHg 66%
    11:00 +12°C° 0 mm 1 mps 690 mmHg 62%
    12:00 +13°C° 0 mm 1 mps 690 mmHg 59%
    13:00 +13°C° 0 mm 1 mps 690 mmHg 58%
    14:00 +13°C° 0 mm 2 mps 689 mmHg 57%
    15:00 +14°C° 0 mm 2 mps 689 mmHg 56%
    16:00 +13°C° 0 mm 1 mps 689 mmHg 60%
    17:00 +12°C° 0 mm 1 mps 690 mmHg 63%
    18:00 +11°C° 0 mm 1 mps 690 mmHg 67%
    19:00 +10°C° 0 mm 1 mps 690 mmHg 69%
    20:00 +10°C° 0 mm 1 mps 691 mmHg 70%
    21:00 +9°C° 0 mm 1 mps 691 mmHg 71%
    22:00 +9°C° 0 mm 1 mps 691 mmHg 72%
    23:00 +8°C° 0 mm 1 mps 691 mmHg 73%

    28 March, Thursday

    Time Temperature Precipitation Wind Pressure Humidity
    00:00 +8°C° 0 mm 1 mps 691 mmHg 73%
    01:00 +8°C° 0 mm 1 mps 692 mmHg 74%
    02:00 +8°C° 0 mm 1 mps 692 mmHg 75%
    03:00 +7°C° 0 mm 1 mps 692 mmHg 75%
    04:00 +7°C° 0 mm 1 mps 692 mmHg 76%
    05:00 +7°C° 0 mm 1 mps 692 mmHg 77%
    06:00 +6°C° 0 mm 1 mps 692 mmHg 78%
    07:00 +8°C° 0 mm 1 mps 692 mmHg 73%
    08:00 +9°C° 0 mm 1 mps 692 mmHg 68%
    09:00 +11°C° 0 mm 1 mps 693 mmHg 64%
    10:00 +12°C° 0 mm 1 mps 692 mmHg 62%
    11:00 +12°C° 0 mm 1 mps 692 mmHg 60%
    12:00 +13°C° 0 mm 2 mps 692 mmHg 58%
    13:00 +13°C° 0.2 mm 2 mps 692 mmHg 58%
    14:00 +13°C° 0.2 mm 1 mps 691 mmHg 59%
    15:00 +13°C° 0.2 mm 1 mps 691 mmHg 59%
    16:00 +12°C° 0.1 mm 1 mps 691 mmHg 62%
    17:00 +12°C° 0.1 mm 1 mps 691 mmHg 65%
    18:00 +11°C° 0.1 mm 1 mps 691 mmHg 68%
    19:00 +10°C° 0 mm 1 mps 691 mmHg 71%
    20:00 +10°C° 0 mm 1 mps 692 mmHg 74%
    21:00 +9°C° 0 mm 1 mps 692 mmHg 77%
    22:00 +8°C° 0 mm 1 mps 692 mmHg 81%
    23:00 +8°C° 0 mm 1 mps 692 mmHg 85%
    Show more